RH
6 6 8 12 12 10 6 22 44 43 38 26 15 9 7 11 18 34 34 55 78 94 92 55 30 35 45 94 99 88 86 88 93 76 73 80 68 14 12 19 29 20 27 26 26 33 44
6 8 13 17 17 12 7 11 40 45 41 28 18 11 9 14 21 32 40 68 74 77 100 82 25 22 36 50 55 65 57 59 84 82 87 100 68 16 12 21 33 24 32 25 26 34 28
11 17 26 27 19 11 7 6 33 45 45 33 21 13 10 16 22 30 53 68 73 89 75 82 35 30 27 43 62 59 60 84 60 80 100 97 98 19 16 25 36 36 33 24 25 28 15
15 25 34 36 22 10 7 6 14 38 48 41 25 16 12 17 25 31 49 60 71 100 88 92 88 61 49 39 26 27 29 67 53 92 100 87 99 24 26 26 43 41 36 23 23 21 10
17 30 35 40 26 13 9 8 7 23 44 48 31 20 15 16 30 30 39 56 66 87 92 97 89 95 99 100 82 57 23 22 27 95 100 99 100 31 46 40 44 40 32 23 19 16 9
13 24 34 42 29 17 9 11 11 9 26 49 47 26 17 17 26 35 27 54 67 70 99 98 94 88 100 100 100 100 76 55 86 100 95 97 97 41 54 49 42 35 30 22 16 13 8
12 15 31 38 32 28 17 10 12 13 10 28 54 41 23 18 21 39 31 51 73 69 84 87 100 92 83 86 100 100 66 32 56 80 92 83 88 60 59 50 44 41 30 21 16 13 9
10 14 21 34 43 32 30 18 10 14 16 16 28 57 37 20 20 32 46 41 53 59 77 79 97 88 90 87 93 97 95 64 74 70 89 94 73 67 67 55 43 41 29 22 18 14 9
10 12 15 27 39 44 32 28 13 10 17 21 22 30 61 33 21 24 40 38 41 61 66 75 94 87 97 95 100 99 100 94 92 100 100 92 89 82 66 55 44 38 27 25 20 16 10
9 10 12 20 35 46 48 32 32 17 12 22 26 25 28 63 26 21 28 34 35 46 64 69 78 92 92 87 98 100 97 100 100 100 98 100 96 74 65 54 45 35 28 25 23 16 11
9 8 10 16 31 44 56 47 33 37 23 15 28 31 29 29 64 22 22 32 32 38 63 67 73 78 75 96 97 93 100 96 100 100 100 93 89 73 62 51 43 34 30 26 24 18 13
9 8 9 15 28 40 56 59 47 36 41 17 21 37 38 35 38 58 23 22 29 34 49 63 68 77 84 83 92 97 100 87 93 100 95 89 80 67 58 48 39 34 31 29 25 20 15
8 8 10 15 24 36 59 69 48 54 37 31 22 37 43 53 33 44 51 23 22 30 32 50 67 70 76 84 92 89 97 92 86 89 81 74 78 59 49 47 36 33 32 30 27 23 18
8 8 10 14 23 35 60 71 58 55 58 34 30 43 54 55 58 32 46 51 22 21 36 33 51 71 75 76 83 94 92 95 86 76 63 57 62 54 41 39 35 31 30 28 27 24 21
8 8 11 14 21 28 59 69 72 55 64 67 47 45 60 62 63 48 30 40 61 20 21 34 34 42 61 68 69 74 85 90 89 72 64 54 51 52 40 38 35 31 30 28 25 23 21
8 10 11 14 18 25 55 68 71 70 62 66 68 63 58 69 64 62 32 30 34 65 24 22 26 37 36 56 66 68 67 76 77 81 66 58 52 50 40 38 38 32 31 29 28 26 26
9 11 12 15 17 26 52 66 67 67 68 66 68 66 60 62 65 62 59 28 28 29 61 48 20 21 31 30 48 60 60 60 61 69 73 73 58 48 44 43 41 37 36 33 32 26 23
10 13 16 19 24 40 57 65 65 62 61 66 69 65 62 59 60 58 60 52 23 26 30 41 64 37 21 21 30 29 48 49 50 51 46 48 63 70 65 58 49 41 41 37 30 26 20
17 18 21 27 36 48 60 63 64 57 59 64 63 62 62 61 56 54 53 55 57 34 24 23 30 41 66 36 19 20 23 27 45 42 37 36 35 31 36 48 50 51 54 41 34 24 19
20 22 28 40 45 61 66 65 62 53 48 51 54 54 59 57 56 55 54 51 50 52 54 39 25 22 29 45 63 52 22 19 21 24 31 33 30 36 31 29 28 27 26 27 27 27 26
24 26 36 45 52 67 74 68 61 58 51 48 50 49 46 48 51 53 54 52 51 50 46 49 54 53 28 19 27 37 52 60 41 18 19 22 19 15 12 12 13 14 14 10 8 8 9
49 53 61 65 70 70 71 64 57 58 55 53 51 51 51 50 47 46 49 52 52 50 45 45 45 44 59 58 42 23 20 28 35 46 57 43 23 13 11 14 14 11 10 8 8 7 5
64 73 72 78 74 74 70 66 63 61 60 58 58 55 54 54 52 50 49 44 44 45 49 49 50 47 45 45 46 50 57 57 50 34 27 36 42 50 54 45 33 21 16 11 10 10 10
69 69 71 70 73 77 79 72 65 65 63 61 60 61 60 58 53 52 53 51 51 48 44 42 42 46 47 46 46 48 47 45 43 52 60 61 55 52 52 49 34 37 48 56 55 57 55
74 77 72 70 71 71 73 72 67 67 65 63 62 60 59 57 57 54 50 51 48 53 53 51 45 40 42 43 40 39 49 49 50 46 47 46 46 46 50 54 53 61 62 59 59 60 58
66 68 74 79 76 76 73 72 70 70 69 61 56 57 59 63 65 59 55 51 50 52 51 50 56 52 50 46 45 42 36 37 41 47 52 53 54 56 55 51 46 49 50 53 55 55 54
77 75 72 66 65 64 65 65 65 65 65 66 67 61 57 59 66 66 65 63 57 54 51 50 50 51 52 52 51 49 48 45 46 49 53 55 51 57 57 57 60 59 55 51 48 47 48
79 79 73 69 68 66 62 61 60 60 60 59 61 62 56 56 62 68 69 67 68 66 60 58 56 58 51 52 53 53 48 55 56 56 62 64 65 61 62 67 64 64 66 66 56 55 52
72 76 76 67 63 62 60 58 58 54 51 53 52 48 50 51 56 60 62 63 69 73 70 67 65 61 59 59 56 58 59 58 64 68 81 80 80 79 77 79 87 86 74 70 66 68 64
Wind_Speed
27 29 31 32 33 33 32 28 30 35 40 44 48 51 48 47 49 42 41 33 32 27 15 7 9 9 2 5 13 19 16 17 23 31 34 34 37 52 60 67 68 65 59 53 49 47 41
26 29 32 32 32 33 33 29 28 33 38 42 46 50 49 47 48 44 43 37 34 33 18 2 6 8 8 3 4 12 17 19 25 33 30 31 38 53 59 64 66 63 56 52 50 46 40
26 30 32 33 32 33 33 31 27 31 35 39 43 48 50 47 48 44 41 38 33 27 18 9 5 5 7 14 10 14 19 26 33 39 29 35 39 53 60 61 64 58 54 51 51 45 40
26 30 33 33 32 33 34 33 30 30 34 37 41 45 48 48 47 43 39 39 37 26 28 18 15 10 7 11 13 12 19 18 19 20 21 33 33 54 59 61 59 55 53 52 51 45 40
25 30 32 33 31 32 34 34 33 31 33 36 39 43 46 47 47 44 40 38 38 30 26 26 18 15 11 8 9 14 13 17 14 20 19 28 35 51 56 58 57 55 53 52 49 45 41
23 26 31 33 30 31 34 35 35 34 33 36 38 41 44 46 46 45 42 38 38 37 22 21 24 20 16 14 15 14 10 10 16 25 25 24 34 51 54 55 55 53 52 50 48 44 42
21 24 28 32 30 29 32 34 36 36 36 35 38 40 42 45 45 46 42 40 34 38 30 30 31 28 23 23 19 18 19 21 22 23 26 25 35 49 50 52 51 49 49 48 45 43 41
20 22 25 29 29 29 30 32 33 35 37 37 37 39 41 42 44 44 39 36 35 37 37 33 29 29 30 36 26 24 21 25 16 20 21 27 37 44 46 49 48 47 46 44 40 39 40
20 21 22 26 28 29 29 29 32 32 34 37 37 36 39 40 40 42 39 32 34 32 35 34 28 27 25 26 19 16 18 20 23 21 20 29 35 41 43 44 45 46 43 38 36 36 37
18 21 22 23 26 28 29 28 29 31 31 33 36 36 36 38 39 39 39 34 30 32 31 31 29 26 21 17 13 11 7 14 17 15 19 28 32 37 38 38 39 40 38 36 35 36 35
19 21 22 23 25 27 29 27 28 28 29 30 33 34 35 35 37 37 36 36 30 28 27 28 27 26 27 24 17 16 15 13 12 12 19 20 26 31 35 35 34 32 32 31 31 33 34
19 20 21 23 25 27 26 26 26 27 27 27 30 32 32 33 32 34 34 34 33 28 25 23 23 25 27 25 24 20 21 18 21 19 22 17 21 26 27 29 29 28 29 28 29 29 30
18 19 20 22 25 27 27 24 22 24 26 26 26 30 31 32 30 30 31 32 31 32 26 24 21 21 24 25 22 21 20 21 22 19 19 20 16 18 23 25 25 25 26 26 26 27 28
18 18 19 20 23 27 27 25 21 22 23 24 25 27 31 32 30 27 28 28 29 30 30 23 21 17 18 20 22 22 19 20 21 19 18 20 18 17 19 20 22 21 22 23 22 23 23
20 19 19 20 22 26 26 24 22 20 22 23 24 27 29 29 30 28 25 26 27 27 27 26 22 20 17 15 17 20 21 16 17 19 16 17 20 18 19 19 19 19 18 19 18 20 20
21 20 20 20 22 25 26 23 22 21 20 22 23 24 26 28 28 28 27 24 24 25 25 26 24 22 17 15 12 13 15 19 15 14 17 15 19 19 18 18 18 19 18 17 16 18 17
22 21 20 20 23 25 25 24 21 21 19 20 21 22 24 26 27 27 28 25 22 23 24 24 25 23 20 15 13 11 11 12 13 14 12 11 14 19 20 18 18 19 19 19 20 17 19
24 23 21 22 24 24 22 23 22 18 17 15 17 17 21 23 25 27 27 27 26 21 21 21 22 22 23 20 15 10 10 10 8 8 10 12 8 11 13 20 22 23 23 23 22 23 24
26 26 26 26 26 24 21 18 18 17 16 13 13 16 17 19 20 22 25 26 25 24 21 18 18 19 18 18 19 17 11 6 9 10 10 10 11 10 8 12 16 18 26 29 31 32 31
30 30 28 30 29 26 21 18 15 14 14 13 14 15 16 18 18 18 19 21 23 24 22 21 19 16 14 14 13 13 14 12 7 3 8 10 13 15 17 18 19 20 24 26 29 31 30
36 35 34 33 32 30 23 19 16 13 13 14 13 13 14 16 17 18 18 20 21 21 22 21 19 18 15 13 12 11 9 7 6 6 4 2 6 10 14 17 20 22 25 25 25 28 28
40 39 38 35 30 28 24 20 17 16 16 16 17 17 16 18 18 19 18 18 17 17 19 19 20 21 19 16 14 12 11 7 6 5 6 8 9 11 11 13 15 16 21 24 25 26 29
39 35 33 31 30 28 25 23 22 20 20 20 20 20 20 20 20 20 21 21 21 21 20 20 18 18 17 17 16 16 14 12 12 10 7 8 12 15 15 18 19 19 23 28 27 28 31
39 35 33 31 31 30 29 28 26 25 25 25 25 25 24 24 24 23 23 23 23 23 23 23 23 24 23 23 21 19 18 18 19 18 15 15 15 14 17 22 23 23 26 30 33 35 36
42 40 39 37 36 36 35 35 33 30 30 30 32 31 30 28 28 29 30 29 29 28 27 28 27 28 29 29 28 27 27 25 24 24 24 24 24 23 23 25 25 25 29 32 33 33 35
47 47 47 45 44 42 39 39 38 37 35 34 34 37 38 38 34 34 34 35 34 33 33 34 34 34 35 36 36 34 32 34 35 32 31 33 35 35 34 34 33 31 34 34 34 35 36
51 51 52 51 49 47 46 44 44 43 42 41 40 41 43 44 42 42 39 39 39 37 37 37 37 39 40 41 42 41 42 41 41 40 40 40 41 40 43 45 42 41 41 42 44 44 43
55 52 52 52 52 51 49 50 50 50 51 51 50 49 48 47 48 47 45 44 43 43 42 41 43 43 46 46 47 47 49 48 48 46 44 45 46 46 46 47 48 49 49 49 50 49 48
61 56 54 52 53 54 53 53 53 52 50 50 51 52 52 52 49 50 50 49 49 49 49 49 49 50 52 52 52 54 54 55 52 52 47 48 48 47 48 50 48 50 55 57 55 49 48
Wind_Direction
24 19 16 11 6 5 7 10 13 11 10 9 12 12 7 4 0 3 359 359 349 344 342 351 32 32 7 194 188 196 203 199 195 190 190 195 196 190 192 196 201 202 202 201 204 205 205
19 15 13 10 9 5 6 8 12 13 12 11 14 13 10 7 6 7 4 7 355 354 353 288 54 46 56 73 181 185 193 191 183 174 182 188 191 189 189 194 198 201 199 197 201 202 201
19 17 11 11 10 7 8 6 8 13 13 13 16 16 13 11 11 12 14 17 8 22 33 79 122 54 68 80 114 156 168 173 174 176 184 196 185 187 185 191 197 197 196 194 201 199 198
20 19 12 10 11 9 10 8 7 12 14 14 17 19 16 13 14 17 19 19 18 28 43 77 61 81 122 107 114 133 159 167 172 207 167 173 179 184 184 189 194 195 194 192 199 196 195
20 20 13 13 11 8 11 11 11 11 14 14 17 20 19 16 15 20 25 25 19 25 40 57 72 76 82 98 127 143 173 181 190 170 158 186 179 185 184 186 192 193 192 192 199 195 192
17 17 13 12 9 7 11 11 14 14 13 15 17 20 20 20 16 20 26 30 27 33 42 53 72 60 61 68 96 129 159 177 170 156 163 175 182 185 184 184 190 192 193 192 197 195 193
9 11 11 9 9 7 9 10 12 16 16 17 16 20 21 21 19 20 23 32 32 36 52 67 77 71 71 66 69 108 123 160 157 161 168 177 179 184 181 181 187 192 193 194 198 194 194
360 0 5 7 6 6 6 8 10 15 17 20 17 20 22 21 21 23 24 29 35 39 46 65 70 72 83 74 83 88 119 145 144 167 174 180 177 182 179 180 186 191 194 196 197 196 196
346 349 356 2 2 3 3 6 7 12 16 17 19 17 22 24 21 25 25 28 36 44 48 52 63 75 87 87 76 95 106 131 149 167 163 174 174 177 179 181 185 190 193 195 198 198 200
334 338 345 353 360 358 0 2 5 9 13 17 19 17 20 23 24 23 27 30 36 44 50 55 56 63 83 89 87 122 115 151 170 166 168 171 173 174 177 180 186 192 194 195 196 198 203
323 331 339 344 354 356 357 359 0 4 11 13 16 19 19 21 24 24 27 30 35 44 54 55 62 56 55 65 82 95 108 118 132 170 154 166 169 171 175 176 184 192 194 197 201 202 204
312 323 332 338 347 352 353 356 358 360 3 13 14 19 19 20 23 26 25 29 34 45 53 62 63 62 64 63 65 78 101 109 105 119 125 144 162 169 172 176 180 187 190 195 202 206 211
304 316 325 331 339 347 349 350 353 358 2 8 14 15 19 20 20 24 30 29 29 43 50 53 63 63 64 65 71 75 92 103 104 115 123 129 147 162 166 176 180 185 189 192 200 208 213
294 307 316 323 334 345 345 345 348 353 0 6 10 13 15 19 21 22 25 33 28 35 46 51 55 65 70 67 71 77 81 102 111 118 127 135 139 150 161 172 177 182 191 197 204 213 217
288 298 308 316 327 339 342 340 342 346 354 0 4 7 13 16 21 22 23 30 32 31 37 47 54 61 70 78 76 75 78 87 116 119 129 139 142 150 159 167 175 181 188 197 209 221 225
282 292 301 310 321 331 336 334 341 339 346 354 358 2 12 15 22 24 27 27 30 34 32 35 46 57 68 76 87 84 85 93 104 121 134 139 150 150 159 167 175 184 193 203 215 226 233
276 283 292 304 314 323 329 326 329 340 339 347 354 1 11 15 23 26 28 31 30 31 35 33 30 38 52 65 82 101 111 102 104 114 131 143 159 168 165 177 186 192 202 209 216 224 229
274 280 289 298 304 313 321 320 322 332 341 349 352 2 11 17 22 31 33 33 35 35 34 36 37 32 29 41 58 79 113 133 138 135 131 132 157 194 201 198 199 203 210 211 214 229 232
275 282 288 292 298 304 308 309 314 324 333 346 355 1 8 19 23 28 34 37 36 38 41 39 41 40 39 33 30 39 57 95 152 168 166 171 172 182 212 222 234 235 228 225 229 228 231
269 273 280 287 291 294 295 293 301 319 325 338 349 356 358 5 12 16 20 22 29 33 36 39 36 38 46 45 46 39 26 32 54 140 193 190 199 198 202 210 228 242 247 256 257 257 263
269 273 278 282 285 285 277 277 280 291 302 312 323 336 346 349 352 356 2 6 10 18 22 26 29 34 33 40 36 35 37 39 22 355 346 263 238 230 217 216 217 220 228 239 247 254 259
269 274 275 276 276 277 270 267 267 273 284 292 300 308 320 329 335 339 342 347 353 359 3 9 13 14 14 16 18 20 15 13 8 346 317 296 282 267 266 258 251 247 250 250 248 250 254
264 267 269 270 269 267 262 262 266 271 276 283 287 293 301 307 315 319 326 330 333 337 343 348 350 353 354 349 350 351 349 342 330 322 311 298 295 286 273 266 258 251 255 258 256 256 258
255 259 258 257 261 264 267 268 267 272 275 279 285 288 290 295 302 307 310 313 316 320 322 325 328 329 331 335 330 329 330 330 326 323 320 313 309 300 292 286 279 272 266 263 265 266 267
256 256 256 258 261 263 267 270 271 274 279 284 288 288 289 290 292 296 300 303 305 306 309 311 313 313 314 315 316 316 315 311 310 313 312 308 304 303 301 294 294 293 283 280 282 282 277
255 257 260 262 265 268 269 271 271 273 277 278 284 288 288 289 288 288 287 290 292 296 300 302 305 305 305 305 304 305 304 304 305 305 306 304 301 299 300 296 293 290 284 283 281 279 280
254 255 257 260 261 263 268 270 270 274 277 278 280 285 286 286 287 286 286 285 285 288 290 293 297 299 299 297 297 297 297 297 298 298 299 296 298 298 298 296 294 290 289 287 284 284 285
253 252 254 258 261 263 266 268 268 269 272 276 278 280 282 282 283 284 284 284 284 286 285 285 289 293 291 291 290 290 289 292 291 294 294 292 291 291 290 290 290 290 287 285 285 288 288
255 253 253 256 259 261 263 266 268 268 269 271 273 278 278 278 277 279 281 284 285 284 284 284 286 288 287 285 284 283 286 286 289 289 288 286 286 285 287 287 287 284 282 282 284 287 286